Terminal Aerodrome Forecast
Issued by NWS

Home | Current Version | Previous Version | Graphics & Text | Print | Product List | Glossary On
Versions: 1 2 3 4 5 6 7 8 9 10 11 12 13 14 15 16 17 18 19 20 21 22 23 24 25 26 27 28 29 30 31 32 33 34 35 36 37 38 39 40 41 42 43 44 45 46 47 48 49 50
000
FTUS43 KLOT 230906 AAA
TAFGYY
TAF AMD
KGYY 230906Z 2309/2406 05007KT P6SM BKN250
     FM231500 03012KT P6SM BKN120 OVC200
     FM232200 07006KT P6SM BKN020 OVC060
     FM240400 09006KT P6SM VCSH BKN010 OVC020 PROB30 2404/2406 -RA=

USA.gov is the U.S. government's official web portal to all federal, state and local government web resources and services.